User: anonymous   Login
Location: Unspecified
(0.0000°N, 0.0000°E)
Time: 11:49:31
(UTC+00:00)
Language:

IGS R-6 - Orbit

View from above orbital plane
View from above orbital plane
View from above satellite
View from above satellite

Ground track
Ground track

The orbit data is extracted from the following two-line orbital elements,

1 43495U 18052A   22239.97056714 0.00000000  00000-0  00000-0 0    01
2 43495  97.3711 355.0194 0000744 190.8766 169.1232 15.25981692    06
Epoch (UTC): 27 August 2022 23:17:37
Eccentricity: 0.0000744
inclination: 97.3711°
perigee height: 487 km
apogee height: 488 km
right ascension of ascending node: 355.0194°
argument of perigee: 190.8766°
revolutions per day: 15.25981692
mean anomaly at epoch: 169.1232°
orbit number at epoch: 0

The dashed part of the orbit path shows where the satellite is in the earth's shadow,  

DLR